CW4691 Weather Reports


time (UTC)temp
C
wind
direction
speed
KPH
gust
KPH
rain 1hr
cm
rain 24hr
cm
rain mn
cm
humidity
%
barometer
mb
20260505173005 11 360 16.1 25.7 0.00 0.03 0.03 75 1008.8
20260505171553 11 360 20.9 30.6 0.00 0.03 0.03 76 1008.7
20260505170034 11 360 17.7 25.7 0.00 0.03 0.03 79 1008.6
20260505164508 10 360 11.3 17.7 0.00 0.03 0.03 81 1008.4
20260505163010 10 360 9.7 17.7 0.00 0.03 0.03 84 1008.5
20260505161603 9 360 12.9 19.3 0.00 0.03 0.03 84 1008.1
20260505153109 9 333 9.7 16.1 0.00 0.03 0.03 85 1008.0
20260505151538 8 360 8.0 12.9 0.00 0.03 0.03 85 1007.9
20260505140114 7 34 8.0 12.9 0.00 0.03 0.03 85 1007.1
20260505124548 7 47 3.2 12.9 0.03 0.03 0.03 84 1007.8
20260505123051 7 325 22.5 37.0 0.00 0.00 0.00 82 1008.2
20260505121544 7 360 22.5 48.3 0.00 0.00 0.00 81 1007.6
20260505120047 8 360 30.6 48.3 0.00 0.00 0.00 73 1007.4
20260505114544 9 360 33.8 53.1 0.00 0.00 0.00 69 1007.1
20260505113032 10 308 33.8 51.5 0.00 0.00 0.00 66 1007.3
20260505111529 10 360 17.7 30.6 0.00 0.00 0.00 73 1007.1
20260505101538 10 360 8.0 27.4 0.00 0.00 0.00 74 1007.2
20260505100021 10 327 14.5 27.4 0.00 0.00 0.00 73 1007.7
20260505094531 10 360 14.5 29.0 0.00 0.00 0.00 72 1007.2
20260505093018 10 360 11.3 22.5 0.00 0.00 0.00 73 1007.2
20260505091515 10 333 9.7 17.7 0.00 0.00 0.00 73 1007.2
20260505090019 9 360 8.0 12.9 0.00 0.00 0.00 74 1007.1
20260505084513 10 355 9.7 16.1 0.00 0.00 0.00 74 1007.5
20260505083017 10 360 9.7 12.9 0.00 0.00 0.00 74 1007.7
20260505081510 10 355 9.7 16.1 0.00 0.00 0.00 73 1008.0
20260505080008 10 350 9.7 16.1 0.00 0.00 0.00 73 1008.2
20260505074504 10 348 6.4 9.7 0.00 0.00 0.00 71 1008.2
20260505073002 10 53 3.2 9.7 0.00 0.00 0.00 70 1008.2
20260505071506 10 50 1.6 8.0 0.00 0.00 0.00 69 1008.0
20260505070104 10 32 8.0 14.5 0.00 0.00 0.00 70 1008.2
20260505064557 10 23 8.0 12.9 0.00 0.00 0.00 68 1008.4
20260505063055 10 333 4.8 12.9 0.00 0.00 0.00 66 1008.0
20260505061554 11 9 8.0 14.5 0.00 0.00 0.00 65 1007.3
20260505060053 11 5 11.3 19.3 0.00 0.00 0.00 65 1007.9
20260505054551 11 16 12.9 22.5 0.00 0.00 0.00 64 1008.5
20260505053049 11 32 8.0 17.7 0.00 0.00 0.00 64 1008.8
20260505051559 11 24 12.9 22.5 0.00 0.00 0.00 63 1008.6
20260505041523 12 350 19.3 29.0 0.00 0.00 0.00 59 1008.7
20260505040016 12 5 19.3 30.6 0.00 0.00 0.00 56 1008.7
20260505034513 12 5 17.7 30.6 0.00 0.00 0.00 54 1008.6
20260505033014 13 346 22.5 37.0 0.00 0.00 0.00 51 1008.5
20260505031513 13 355 19.3 45.1 0.00 0.00 0.00 49 1008.2
20260505030011 13 360 24.1 38.6 0.00 0.00 0.00 46 1007.9
20260505024512 13 10 30.6 45.1 0.00 0.00 0.00 44 1007.8
20260505023017 15 20 27.4 38.6 0.00 0.00 0.00 37 1007.7
20260505021513 16 336 25.7 38.6 0.00 0.00 0.00 31 1007.4
20260505020007 17 360 19.3 37.0 0.00 0.00 0.00 29 1007.2
20260505014512 17 315 29.0 43.5 0.00 0.00 0.00 28 1007.1
20260505013005 17 360 29.0 46.7 0.00 0.00 0.00 27 1006.9
20260505011506 18 360 27.4 43.5 0.00 0.00 0.00 25 1006.6
20260505010005 18 360 29.0 46.7 0.00 0.00 0.00 23 1006.5
20260505004503 19 360 27.4 41.8 0.00 0.00 0.00 22 1006.2
20260505003004 20 304 32.2 46.7 0.00 0.00 0.00 19 1006.2
20260505001504 20 315 32.2 48.3 0.00 0.00 0.00 19 1006.2
20260505000002 20 360 32.2 51.5 0.00 0.00 0.00 19 1006.6
20260504234502 20 360 30.6 48.3 0.00 0.00 0.00 19 1006.7
20260504233005 20 360 29.0 48.3 0.00 0.00 0.00 18 1006.7
20260504231501 21 360 30.6 48.3 0.00 0.00 0.00 18 1006.8
20260504230106 21 309 24.1 41.8 0.00 0.00 0.00 19 1006.8
20260504224559 21 360 35.4 46.7 0.00 0.00 0.00 19 1006.9
20260504223103 21 323 24.1 51.5 0.00 0.00 0.00 19 1006.9
20260504221603 21 360 27.4 48.3 0.00 0.00 0.00 19 1006.8
20260504220058 22 360 24.1 45.1 0.00 0.00 0.00 18 1007.4
20260504214612 21 360 27.4 43.5 0.00 0.00 0.00 18 1007.5
20260504213109 21 360 25.7 40.2 0.00 0.00 0.00 20 1007.8
20260504211556 21 360 30.6 43.5 0.00 0.00 0.00 21 1008.1
20260504210057 21 360 30.6 49.9 0.00 0.00 0.00 21 1008.3
20260504204553 21 360 27.4 43.5 0.00 0.00 0.00 20 1008.4
20260504203053 21 360 25.7 38.6 0.00 0.00 0.00 19 1008.6
20260504201601 21 360 27.4 43.5 0.00 0.00 0.00 20 1008.6
20260504200048 21 360 29.0 43.5 0.00 0.00 0.00 20 1008.5
20260504194551 21 360 27.4 38.6 0.00 0.00 0.00 20 1008.7
20260504193045 21 355 22.5 35.4 0.00 0.00 0.00 20 1008.7
20260504191555 20 360 29.0 45.1 0.00 0.00 0.00 19 1008.9
20260504190047 21 360 30.6 46.7 0.00 0.00 0.00 19 1009.3
20260504184555 20 360 22.5 40.2 0.00 0.00 0.00 20 1009.4
20260504183042 20 302 30.6 48.3 0.00 0.00 0.00 20 1009.2
20260504181539 20 360 20.9 38.6 0.00 0.00 0.00 23 1009.3
20260504180134 19 288 24.1 35.4 0.00 0.00 0.00 24 1009.3
20260504174536 18 360 19.3 30.6 0.00 0.00 0.00 27 1009.9